Location: Newark
(42.3578°N, 71.0617°W)
Time: 15:17:53
(UTC+00:00)

Envisat - Visible Passes

Search period start: 29 September 2020 00:00
Search period end: 09 October 2020 00:00
Orbit: 764 x 766 km, 98.1° (Epoch: 29 September)

Date Brightness Start Highest point End Pass type
(mag) Time Alt. Az. Time Alt. Az. Time Alt. Az.
29 Sep 6.4 09:25:53 10° ENE 09:28:03 13° E 09:30:13 10° ESE visible
30 Sep 6.3 23:22:35 10° WSW 23:25:19 14° W 23:28:03 10° WNW visible
01 Oct 5.8 09:49:50 10° NE 09:53:46 22° E 09:57:42 10° SE visible
01 Oct 5.2 22:43:40 10° SSW 22:48:10 32° W 22:52:42 10° NNW visible
03 Oct 4.8 10:14:39 10° NNE 10:19:24 38° E 10:24:07 10° SSE visible
03 Oct 6.1 23:10:21 10° SW 23:13:49 18° W 23:17:19 10° NW visible
04 Oct 6.1 09:38:54 10° NE 09:42:18 18° E 09:45:40 10° SE visible
06 Oct 5.2 10:03:29 10° NE 10:07:58 30° E 10:12:24 10° SSE visible
06 Oct 5.8 22:58:21 10° SW 23:02:21 23° W 23:06:23 10° NW visible
07 Oct 6.3 09:28:14 10° ENE 09:30:48 14° E 09:33:22 10° ESE visible
08 Oct 6.4 23:25:42 10° WSW 23:28:04 13° W 23:30:26 10° WNW visible
